Weather in Altay

China     47°50′34″N   88°08′13″E
temp.,
°C
wind,
m/s
gust,
m/s
humid.,
%
clouds,
%
prec.,
mm/h
press.,
hPa
HPBL,
m
6 march, sat
sat623:00−7n1197100 0.4 103621
02:00−10nne228075 0.4 103921
05:00−10ne22570 0.0 103821
08:00−10ne22530 0.0 103821
11:00−8ne11560 0.0 103621
14:00−5wsw11630 0.0 103156
17:00−4s00770 0.0 102741
20:00−7ne12640 0.0 102821
7 march, sun
sun723:00−7ne22470 0.0 102821
02:00−6ne22490 0.0 102821
05:00−6ne22530 0.0 102621
08:00−6ne22530 0.0 102721
11:00−4ne11610 0.0 102522
14:00−2wsw11710 0.0 102358
17:00−1wsw11790 0.0 102244
20:00−5nne11625 0.0 102421
8 march, mon
mon823:00−5ne225219 0.0 102622
02:00−5ne115255 0.0 102621
05:00−5n1154100 0.0 102521
08:00−6nne0158100 0.0 102521
11:00−3wsw0167100 0.0 102421
14:00−2ssw1177100 0.0 102246
17:00−1ese118278 0.0 102050
20:00−5ene007356 0.0 102221
9 march, tue
tue923:00−5sw0171100 0.0 102621
02:00−5se007499 0.0 102721
05:00−5nnw0180100 0.1 102921
08:00−7ne1188100 0.2 103021
11:00−5wsw1189100 0.1 103062
14:00−3sw119081 0.1 102897
17:00−2ssw119124 0.0 102675
20:00−6ne019012 0.0 102721
10 march, wed
wed1023:00−5nne11700 0.0 102821
02:00−4ne11620 0.0 102722
05:00−4ne225810 0.0 102522
08:00−3ne22555 0.0 102522
11:000ne11620 0.0 102222
14:00+2n00910 0.0 101826
17:00+3ne118238 0.0 101623
20:00+1n226141 0.0 101622